Regional Weather Roundup
Issued by NWS

Home | Current Version | Previous Version | Graphics & Text | Print | Product List | Glossary On
Versions: 1 2 3 4 5 6 7 8 9 10 11 12 13 14 15 16 17 18 19 20 21 22 23 24 25 26 27 28 29 30 31 32 33 34 35 36 37 38 39 40 41 42 43 44 45 46 47 48 49 50
000
ASUS43 KLOT 221304
RWRIL

ILLINOIS REGIONAL WEATHER ROUNDUP
NATIONAL WEATHER SERVICE CHICAGO/ROMEOVILLE IL
800 AM CDT SUN OCT 22 2017

NOTE: "FAIR" INDICATES FEW OR NO CLOUDS BELOW 12,000 FEET WITH NO
SIGNIFICANT WEATHER AND/OR OBSTRUCTIONS TO VISIBILITY.

* THESE STATIONS ARE NOT UNDER NWS QUALITY CONTROL. THEY ALSO MAY NOT
  REPORT WEATHER SUCH AS PRECIPITATION OR FOG.

ILZ001-002-007-009-015-016-024-221400-
NORTHWEST ILLINOIS

CITY           SKY/WX    TMP DP  RH WIND       PRES   REMARKS
MOLINE         CLOUDY    55  52  89 NW7       29.92R
STERLING*      LGT RAIN  62  61  96 NW9         N/A
SAVANNA*       CLOUDY    55  54  94 N10       29.91S
$$

ILZ003-004-008-010-011-017-018-221400-
NORTH CENTRAL ILLINOIS

CITY           SKY/WX    TMP DP  RH WIND       PRES   REMARKS
ROCKFORD       LGT RAIN  62  60  93 S12       29.91F FOG
FREEPORT*      CLOUDY    61  60  99 W3        29.92R
ROCHELLE*      RAIN      61  61  98 S7        29.91F
$$

ILZ005-006-012>014-019>023-221400-
NORTHEAST ILLINOIS

CITY           SKY/WX    TMP DP  RH WIND       PRES   REMARKS
CHICAGO-OHARE  CLOUDY    66  56  70 S14       29.94R
CHICAGO-MIDWAY MOCLDY    66  56  70 S14G23    29.95R
AURORA         CLOUDY    66  59  78 S12       29.93R
LANSING*       PTCLDY    64  57  78 S16G25    29.98R
JOLIET*        MOCLDY    66  59  77 S9G16     29.95R
WAUKEGAN       CLOUDY    67  58  72 S16G23    29.93R
DUPAGE AIRPORT MOCLDY    65  59  81 S14       29.93R
KANKAKEE*      CLEAR     65  56  74 S14G22    29.98R
WHEELING       CLOUDY    66  58  75 S14       29.95R
MORRIS*        CLOUDY    65  57  75 S15       29.93R
NORTHERLY ISL    N/A     65  54  67 S9          N/A
$$

LMZ740>746-221400-
SOUTHERN LAKE MICHIGAN

STATION/POSITION SKY/WX   TEMP    WIND        PRES    VSBY  WAVE
                          AIR SEA DIR/SP/G                  HT/PER
                          (F)     (DEG/KT/KT) (MB)    (MI)  (FT/S)
SOUTHERN BUOY              63 60  140/ 19/ 23 1013.5          3/ 5
WILMETTE HARBOR            63 58  170/ 12/ 16   N/A           2/ 4
HARRISON CRIB              66     190/ 22/ 24   N/A
BURNHAM HARBOR             65     150/ 14/ 16   N/A
CALUMET HARBOR             66     160/ 14/ 19 1013.6F
BURNS HARBOR               66     180/ 16/ 24 1015.6R
MICHIGAN CITY              64     160/ 14/ 17   N/A
MICHIGAN CITY 6N           63 58  180/ 16/ 23   N/A           2/ 3
ST. JOSEPH                 63 59  180/ 16/ 19 1016.2R         2/ 4
$$

ILZ025>027-034>036-040-047-049-050-058-095>099-221400-
WEST-CENTRAL ILLINOIS

CITY           SKY/WX    TMP DP  RH WIND       PRES   REMARKS
QUINCY         CLOUDY    54  52  93 NW13      29.95R
MACOMB*        HVY RAIN  55  54  97 N9        29.94F
JACKSONVILLE*  RAIN      61  60  96 NW14      29.91R
$$

ILZ028>032-037-038-041>044-048-051>054-059>061-221400-
CENTRAL ILLINOIS

CITY           SKY/WX    TMP DP  RH WIND       PRES   REMARKS
BLOOMINGTON    CLOUDY    63  60  90 SE16      29.94R
DECATUR        MOCLDY    66  60  81 S20       29.94S
PEORIA         LGT RAIN  65  64  97 SW7       29.91R FOG
LACON*         CLOUDY    63  63  99 S5        29.90R
LINCOLN*       CLOUDY    68  63  85 S14       29.92R
SPRINGFIELD    CLOUDY    70  63  78 S14       29.91R
TAYLORVILLE    CLOUDY    66  62  86 S13G20    29.93R
$$

ILZ033-039-045-046-055>057-062-063-221400-
EAST-CENTRAL ILLINOIS

CITY           SKY/WX    TMP DP  RH WIND       PRES   REMARKS
CHAMPAIGN      MOCLDY    67  58  72 S18       29.99R
DANVILLE*      MOCLDY    64  56  75 S16G25    29.99R
MATTOON        CLOUDY    65  60  84 S15       29.99R
PARIS*         CLOUDY    64  57  80 SE13      30.04R
$$

ILZ079-100>102-221400-
SOUTHWEST ILLINOIS

CITY           SKY/WX    TMP DP  RH WIND       PRES   REMARKS
ALTON          CLOUDY    70  64  83 S16       29.91R
CAHOKIA*       CLOUDY    72  63  73 S9        29.90R
SPARTA*        CLOUDY    70  63  78 S15G21    29.95R
$$

ILZ064>066-069>071-074>076-080>082-084>086-088>090-092>094-221400-
SOUTH-CENTRAL ILLINOIS

CITY           SKY/WX    TMP DP  RH WIND       PRES   REMARKS
CARBONDALE     CLOUDY    67  65  93 S20G29    29.97S
EFFINGHAM*     CLOUDY    64  61  90 SE13G18   30.01S
MARION         LGT RAIN  66  66 100 S14       30.01R
MT. VERNON     LGT RAIN  67  62  84 S14G24    30.00R
CENTRALIA*     CLOUDY    70  63  78 S18G29    29.96S
SALEM*         CLOUDY    71  61  71 S14G24    29.98R
METROPOLIS*    RAIN      66  62  85 SE7       30.04R
$$

ILZ067-068-072-073-078-083-087-091-221400-
SOUTHEAST ILLINOIS

CITY           SKY/WX    TMP DP  RH WIND       PRES   REMARKS
LAWRENCEVILLE  CLOUDY    66  56  70 S15       30.06R
FLORA*         CLOUDY    67  60  77 S17       30.01R
FAIRFIELD*     CLOUDY    66  60  80 SE6       30.02R
HARRISBURG*    CLOUDY    67  62  83 S12       30.04R
ROBINSON*      CLOUDY    65  56  74 S13       30.05S
CARMI*         CLOUDY    65  59  80 SE12      30.04R
$$

ABBREVIATIONS USED IN REMARKS
   TC - TEMPERATURE IN CELSIUS
  WCI - WIND CHILL INDEX
   HX - HEAT INDEX
  VSB - VISIBILITY
$$





USA.gov is the U.S. government's official web portal to all federal, state and local government web resources and services.